Regional Weather Roundup
Issued by NWS

Home | Current Version | Previous Version | Text Only | Print | Product List | Glossary Off
Versions: 1 2 3 4 5 6 7 8 9 10 11 12 13 14 15 16 17 18 19 20 21 22 23 24 25 26 27 28 29 30 31 32 33 34 35 36 37 38 39 40 41 42 43 44 45 46 47 48 49 50

000
ASUS43 KBIS 251710
RWRND

NORTH DAKOTA REGIONAL WEATHER ROUNDUP
NATIONAL WEATHER SERVICE BISMARCK ND
1200 PM CDT SAT OCT 25 2014

NOTE: "FAIR" INDICATES FEW OR NO CLOUDS BELOW 12,000 FEET WITH NO
SIGNIFICANT WEATHER AND/OR OBSTRUCTIONS TO VISIBILITY.


NDZ001>003-009>011-017-251800-
NORTHWEST NORTH DAKOTA

CITY           SKY/WX    TMP DP  RH WIND       PRES   REMARKS
WILLISTON      CLOUDY    52  32  46 S8        30.11F
MINOT          SUNNY     53  30  41 SW6       30.11F
MINOT AFB      SUNNY     54  29  38 W6        30.11F
$$

NDZ018>021-031>035-040>046-251800-
SOUTHWEST NORTH DAKOTA

CITY           SKY/WX    TMP DP  RH WIND       PRES   REMARKS
BISMARCK       SUNNY     57  33  40 CALM      30.16F
DICKINSON      SUNNY     56  31  38 E8        30.11F
GARRISON         N/A     54  30  40 E3        30.13F
HETTINGER ARPT SUNNY     59  28  30 SE7       30.14F
$$

NDZ004>008-012>016-024-026-027-054-251800-
NORTHEAST NORTH DAKOTA

CITY           SKY/WX    TMP DP  RH WIND       PRES   REMARKS
GRAND FORKS    SUNNY     56  28  34 NW18G24   30.08S
GRND FRKS AFB  SUNNY     56  30  36 N15       30.09S
DEVILS LAKE    SUNNY     52  30  43 W15       30.09F
$$

NDZ022-023-025-028>030-036>039-047>053-251800-
SOUTHEAST NORTH DAKOTA

CITY           SKY/WX    TMP DP  RH WIND       PRES   REMARKS
FARGO          SUNNY     56  31  38 NW14      30.11S
JAMESTOWN      MOSUNNY   55  33  43 NW10      30.13F
$$




USA.gov is the U.S. government's official web portal to all federal, state and local government web resources and services.